Location: Newark
(55.7083°N, 13.1992°E)
Time: 21:07:04
(UTC+00:00)

ISS - Pass Details

Date: 25 January 2020
Orbit: 415 x 422 km, 51.6° (Epoch: 24 February)

Event Time Altitude Azimuth Distance (km) Brightness Sun altitude
Rises 18:10:39 0° 242° (WSW) 2,375 1.1 -22.7°
Reaches altitude 10° 18:12:51 10° 233° (SW) 1,510 -0.2 -23.0°
Enters shadow 18:14:48 26° 208° (SSW) 869 -2.0 -23.3°
